Find Starlink 11427

NORAD ID: 62063 Int'l Des: 2024-217 Owner: SPXS Country: US Constellation: starlink operational
LEOCIRCULAR

Current View

Loading 3D Globe...

About Starlink 11427

Starlink 11427 (NORAD 62063) is a starlink constellation satellite (v2 mini d2c) launched Nov 24, 2024 by SPXS of US. It operates in LEO, CIRCULAR orbit with a mass of 960.00 kg.

About Starlink 11427

Description loading...

Upcoming Passes

Passes for default location (London). Set your location on the main map for personalized predictions.

Altitude History

Loading altitude history...

Two-Line Element Set

1 62063U 24217G 26168.73132613 .00143530 00000-0 11687-2 0 9993
2 62063 53.1570 298.2763 0001686 39.4969 320.6172 15.69719859 90884
Epoch: Jun 17, 2026 • Age: 13 hours

Current Status

Altitude 372.6 km
Velocity 7.69 km/s
Sub-Earth Point -37.64°S, 142.87°E
Launch Date Nov 24, 2024
Age 1.5 years
Type internet

Technical Details

Classification Payload
Mass 960.00 kg
Dry Mass 910.00 kg
Total Mass 960.00 kg
Length 0.30 m
Diameter 4.10 m
Span 29.00 m
Shape Box + pan
Manufacturer SPXS
Bus Type Starlink V2MD
Phase Status In Orbit
Owner/State SPXS/US

Most Searched